[[{"header":{"parameterUnit":"m.s-1","parameterCategory":1,"la1":30.2991,"la2":30.254,"lo1":-89.0895,"lo2":-89.0444,"dy":0.0017,"dx":0.0017,"nx":28,"ny":28,"refTime":"2025-05-24T03:00:00:Z","depth":0,"parameterNumber":2,"parameterNumberName":"U-component_of_WINDS"},"data":[0,0,0,0,0,0,0,0,0,0,0,0,0,0,0,0,0,0,0,0,0,0,0,0,0,0,0,0,0,0,0,0,0,0,0,0,0,0,0,0,0,0,0,0,0,0,0,0,0,0,0,0,0,0,0,0,0,0,0.3855,0.3856,0,0.3941,0.3942,0.3943,0.3987,0.3987,0.3987,0.3987,0.4077,0.4079,0.4081,0,0,0,0,0,0,0,0,0,0,0,0,0,0.3731,0.3733,0.3855,0.3856,0.3857,0.394,0.3942,0.3943,0.3987,0.3987,0.3987,0.3987,0.4076,0.4079,0.4082,0,0,0,0,0,0,0,0,0,0,0,0,0,0.3798,0.3734,0.3854,0.3889,0.3893,0.394,0.3942,0.3943,0.3987,0.3987,0.3987,0.3987,0.4075,0.4078,0.4082,0.4102,0,0,0.4093,0.4094,0,0,0,0,0,0,0,0,0.3794,0.3802,0.3883,0.3887,0.3891,0.3953,0.3931,0.3997,0.3987,0.3951,0.3987,0.3987,0.4036,0.4042,0.4058,0.4106,0.411,0.4093,0.4095,0.4097,0.4098,0,0,0,0,0,0,0,0.3789,0.3799,0.3889,0.3884,0.3889,0.3901,0.391,0.3944,0.3992,0.3954,0.3958,0.3967,0.4038,0.4055,0.4061,0.4112,0.4093,0.4096,0.4098,0.41,0.4183,0.4183,0,0,0,0,0,0,0.3779,0.3795,0.3886,0.3891,0.3842,0.3903,0.3914,0.3933,0.3992,0.4001,0.3967,0.3969,0.4049,0.4057,0.4064,0.4093,0.4097,0.41,0.4102,0.4183,0.4183,0.4183,0,0,0,0,0,0,0.3776,0.3786,0.3882,0.3844,0.3857,0.3905,0.3927,0.3935,0.3952,0.4001,0.401,0.3975,0.4049,0.4059,0.4093,0.4097,0.4101,0.4105,0.4183,0.4183,0.4183,0.415,0,0,0,0,0,0,0.3772,0.3785,0.3793,0.3844,0.3859,0.3909,0.3927,0.3936,0.3958,0.3961,0.4012,0.402,0.405,0.4087,0.4096,0.4102,0.4107,0.4182,0.4183,0.4183,0.4151,0.4149,0.4147,0,0,0,0,0,0.3768,0.378,0.3793,0.3803,0.3869,0.3909,0.3917,0.3951,0.3958,0.3966,0.3998,0.4018,0.4095,0.409,0.4101,0.4107,0.4182,0.4183,0.4183,0.4152,0.4149,0.4147,0,0,0,0,0,0,0.3728,0.3787,0.3802,0.3831,0.3864,0.3916,0.3928,0.3947,0.398,0.3982,0.4023,0.4034,0.4064,0.4089,0.4083,0.4131,0.4141,0.4143,0.4114,0.4112,0.411,0.4103,0.411,0,0,0,0,0,0.3722,0.3749,0.38,0.382,0.3836,0.3879,0.3897,0.3921,0.3957,0.3972,0.4006,0.4042,0.4074,0.4094,0.4126,0.4155,0.4167,0.4165,0.4163,0.4161,0.4163,0.4181,0.4181,0.4184,0.4184,0.4184,0,0,0.3711,0.3747,0.3761,0.3813,0.3842,0.387,0.3891,0.3918,0.394,0.3976,0.401,0.4037,0.4079,0.4111,0.4126,0.4132,0.4165,0.4161,0.416,0.4162,0.4182,0.4181,0.4181,0.4184,0.4184,0.4184,0,0,0.3706,0.3735,0.3756,0.3785,0.3828,0.3856,0.3861,0.3911,0.393,0.3964,0.3993,0.4019,0.4073,0.4103,0.4125,0.4132,0.4153,0.4142,0.4132,0.415,0.415,0.415,0.4154,0.4154,0.4143,0.4143,0.4143,0,0.3687,0.3729,0.3764,0.3791,0.3814,0.3848,0.3871,0.3897,0.3949,0.3964,0.397,0.404,0.4071,0.411,0.4112,0.4129,0.4137,0.4136,0.4147,0.4147,0.4148,0.4152,0.4153,0.4142,0.4142,0.4142,0.4142,0,0.3704,0.3733,0.3745,0.3794,0.3818,0.3842,0.3883,0.3903,0.3925,0.3953,0.3989,0.4027,0.4069,0.408,0.4101,0.4123,0.4126,0.4139,0.4149,0.4146,0.415,0.4152,0.4139,0.414,0.414,0.4141,0,0,0.3674,0.3744,0.3748,0.3771,0.3822,0.3846,0.3873,0.3913,0.393,0.3965,0.399,0.4035,0.4048,0.4073,0.4099,0.4114,0.4119,0.4126,0.4127,0.4124,0.4147,0.4137,0.4138,0.4133,0.4133,0.4134,0.4144,0,0.3676,0.3725,0.3759,0.3795,0.3823,0.3857,0.3881,0.3916,0.3943,0.3972,0.4003,0.4035,0.4049,0.4064,0.4081,0.4115,0.4124,0.4114,0.4157,0.4158,0.4146,0.4141,0.413,0.4138,0.4146,0.4146,0.4147,0,0.3685,0.3719,0.3758,0.3807,0.3821,0.3841,0.3882,0.3908,0.3949,0.3968,0.3997,0.4023,0.4054,0.4062,0.4106,0.4099,0.4118,0.4138,0.4139,0.4144,0.4152,0.4147,0.4141,0.4142,0.4149,0.4149,0.4149,0,0.366,0.3716,0.3747,0.3766,0.3824,0.3838,0.3864,0.3904,0.3927,0.3963,0.3978,0.4017,0.4039,0.4069,0.4105,0.4108,0.4147,0.4157,0.4164,0.4164,0.4171,0.417,0.4169,0.4183,0.4183,0.4183,0.4183,0,0.3659,0.3682,0.3737,0.3756,0.3783,0.3823,0.3849,0.3877,0.3913,0.3939,0.3971,0.3995,0.4042,0.4072,0.4101,0.4134,0.4143,0.416,0.4168,0.4158,0.4156,0.4171,0.4172,0.4183,0.4183,0.4183,0.4183,0,0.3636,0.3674,0.371,0.3763,0.3777,0.3795,0.3841,0.3861,0.3891,0.3924,0.3934,0.3981,0.4018,0.4058,0.4108,0.4128,0.416,0.417,0.4146,0.415,0.4156,0.4155,0.4165,0.4169,0.4179,0.4179,0.4179,0,0.3633,0.3651,0.3707,0.3726,0.3751,0.3782,0.3805,0.3845,0.3869,0.3917,0.3932,0.3972,0.4006,0.4064,0.4104,0.4143,0.4155,0.4156,0.4161,0.4151,0.4156,0.4154,0.4157,0.4154,0.4153,0.4153,0.4153,0,0.3624,0.3642,0.3674,0.3714,0.3741,0.3774,0.3808,0.3823,0.387,0.3895,0.3933,0.396,0.4012,0.4051,0.4096,0.4123,0.4146,0.4151,0.4155,0.4145,0.4131,0.4139,0.4142,0.4151,0.4151,0.4151,0.4151,0.4151,0.3611,0.363,0.3672,0.3707,0.3738,0.3769,0.3792,0.3825,0.3857,0.3903,0.3925,0.3963,0.4006,0.4068,0.4095,0.4126,0.4133,0.4139,0.414,0.4141,0.4139,0.4125,0.4135,0.4135,0.4135,0.4135,0.4135,0,0.3604,0.3634,0.3666,0.3713,0.3741,0.3761,0.38,0.3823,0.3857,0.3894,0.3927,0.3972,0.4011,0.4054,0.4096,0.4113,0.4125,0.4123,0.4122,0.4128,0.413,0.4123,0.4112,0.4112,0.4112,0.4112,0.4112,0.4112,0.3604,0.3637,0.366,0.3709,0.3739,0.3776,0.3798,0.3828,0.3858,0.3906,0.3939,0.3967,0.4007,0.4052,0.4089,0.4101,0.4115,0.411,0.4125,0.4126,0.4128,0.4129,0.4123,0.4113,0.4113,0.4121,0.4121,0.4121]},{"header":{"parameterUnit":"m.s-1","parameterCategory":1,"la1":30.2991,"la2":30.254,"lo1":-89.0895,"lo2":-89.0444,"dy":0.0017,"dx":0.0017,"nx":28,"ny":28,"refTime":"2025-05-24T03:00:00:Z","depth":0,"parameterNumber":3,"parameterNumberName":"V-component_of_WINDS"},"data":[0,0,0,0,0,0,0,0,0,0,0,0,0,0,0,0,0,0,0,0,0,0,0,0,0,0,0,0,0,0,0,0,0,0,0,0,0,0,0,0,0,0,0,0,0,0,0,0,0,0,0,0,0,0,0,0,0,0,0.8102,0.8101,0,0.7992,0.7991,0.799,0.7967,0.7967,0.7968,0.7969,0.7856,0.7852,0.7849,0,0,0,0,0,0,0,0,0,0,0,0,0,0.829,0.8287,0.8102,0.8101,0.8099,0.7993,0.7991,0.799,0.7966,0.7967,0.7968,0.7969,0.7857,0.7853,0.7848,0,0,0,0,0,0,0,0,0,0,0,0,0,0.8198,0.8286,0.8102,0.8075,0.8071,0.7993,0.7991,0.7989,0.7966,0.7967,0.7969,0.797,0.7859,0.7853,0.7848,0.7789,0,0,0.7831,0.7828,0,0,0,0,0,0,0,0,0.8203,0.8191,0.808,0.8077,0.8072,0.7994,0.8016,0.7922,0.7966,0.8006,0.7969,0.797,0.7901,0.7892,0.7869,0.7783,0.7779,0.783,0.7827,0.7824,0.7823,0,0,0,0,0,0,0,0.8209,0.8195,0.8059,0.8079,0.8074,0.8068,0.8056,0.7998,0.7948,0.8003,0.8001,0.7988,0.7899,0.7874,0.7866,0.7777,0.783,0.7825,0.7822,0.782,0.7638,0.7637,0,0,0,0,0,0,0.8221,0.8201,0.8062,0.8055,0.8142,0.8064,0.805,0.8018,0.7949,0.7939,0.7987,0.7987,0.7883,0.7873,0.7862,0.7789,0.7824,0.7819,0.7816,0.764,0.7638,0.7637,0,0,0,0,0,0,0.8225,0.8209,0.8066,0.8127,0.8109,0.8059,0.8023,0.8015,0.7991,0.7937,0.7928,0.7971,0.7884,0.787,0.7807,0.7784,0.7816,0.7811,0.7642,0.7639,0.7637,0.7641,0,0,0,0,0,0,0.823,0.821,0.8187,0.8127,0.8106,0.8014,0.8022,0.8012,0.7981,0.798,0.7919,0.791,0.7884,0.7816,0.7802,0.7777,0.7807,0.7643,0.7641,0.7638,0.7643,0.764,0.7637,0,0,0,0,0,0.8237,0.8192,0.8186,0.817,0.8076,0.8012,0.8,0.7971,0.7979,0.7956,0.7922,0.7912,0.7789,0.781,0.7794,0.7767,0.7645,0.7641,0.7638,0.7644,0.764,0.7637,0,0,0,0,0,0,0.825,0.8184,0.8176,0.8111,0.8068,0.8009,0.7978,0.7967,0.792,0.7921,0.7886,0.7873,0.7813,0.7783,0.7807,0.7707,0.7717,0.7711,0.7728,0.7723,0.772,0.7728,0.7802,0,0,0,0,0,0.8246,0.82,0.8144,0.8092,0.8071,0.8028,0.7999,0.798,0.7934,0.7915,0.7877,0.7832,0.7783,0.7752,0.7704,0.7639,0.7625,0.7613,0.761,0.7607,0.7602,0.7566,0.756,0.7626,0.7626,0.7626,0,0,0.8236,0.8194,0.8167,0.8093,0.8058,0.8011,0.8013,0.7963,0.7928,0.7908,0.7846,0.7817,0.7764,0.7701,0.767,0.7674,0.7581,0.7603,0.7602,0.7597,0.7562,0.7556,0.755,0.7624,0.7624,0.7625,0,0,0.8193,0.8157,0.8109,0.8074,0.802,0.7992,0.7981,0.7924,0.7903,0.7841,0.7825,0.7783,0.77,0.7663,0.7634,0.7579,0.7569,0.7564,0.7547,0.7513,0.7508,0.7503,0.7483,0.7477,0.7559,0.7559,0.7559,0,0.8187,0.8116,0.8086,0.8037,0.8006,0.7986,0.7938,0.7905,0.7838,0.7816,0.7822,0.7717,0.7681,0.7608,0.7595,0.7572,0.7558,0.7571,0.7511,0.7506,0.7501,0.7482,0.7474,0.7559,0.7559,0.7559,0.7559,0,0.8112,0.8063,0.8031,0.7967,0.7932,0.7884,0.7847,0.7815,0.7799,0.7771,0.7708,0.7664,0.7607,0.7589,0.7573,0.7514,0.7518,0.7518,0.7528,0.7495,0.7476,0.7469,0.7559,0.7559,0.7559,0.7559,0,0,0.8074,0.7995,0.7984,0.7955,0.7894,0.7856,0.7807,0.7752,0.7725,0.768,0.7638,0.7569,0.7568,0.7535,0.7515,0.7484,0.7444,0.7487,0.7486,0.7481,0.7377,0.7378,0.737,0.7437,0.7436,0.7434,0.7381,0,0.8024,0.7936,0.7908,0.7835,0.7789,0.777,0.7728,0.7686,0.7659,0.7616,0.7586,0.7537,0.754,0.752,0.7489,0.7455,0.7423,0.7459,0.7398,0.7396,0.7411,0.736,0.736,0.7312,0.7374,0.7373,0.7372,0,0.7954,0.7908,0.783,0.7776,0.7756,0.7718,0.7666,0.7625,0.7578,0.756,0.7524,0.7506,0.7455,0.7468,0.7397,0.7422,0.7396,0.7375,0.7373,0.7366,0.7382,0.7352,0.7296,0.7289,0.736,0.7361,0.7362,0,0.7934,0.7853,0.7796,0.7772,0.7707,0.7681,0.7653,0.7607,0.7576,0.753,0.751,0.7458,0.743,0.7391,0.736,0.7373,0.7292,0.7303,0.7275,0.7276,0.7259,0.726,0.7198,0.7242,0.7242,0.7242,0.7242,0,0.7881,0.7834,0.7786,0.7751,0.7698,0.7667,0.7616,0.7586,0.7546,0.7505,0.7485,0.7448,0.7409,0.7366,0.7342,0.7287,0.7274,0.7259,0.7253,0.726,0.7262,0.7242,0.7244,0.724,0.7241,0.7241,0.7241,0,0.785,0.7816,0.7752,0.7697,0.7682,0.7645,0.7598,0.7563,0.7536,0.7484,0.747,0.7426,0.7375,0.7341,0.7275,0.7259,0.7198,0.7193,0.7215,0.7212,0.7186,0.7189,0.7109,0.7097,0.7149,0.7149,0.7149,0,0.7818,0.7781,0.7722,0.7694,0.7666,0.762,0.7588,0.7556,0.7524,0.7468,0.744,0.7387,0.7344,0.7262,0.7225,0.7174,0.7168,0.7143,0.716,0.7169,0.7167,0.717,0.7166,0.7141,0.714,0.714,0.714,0,0.7765,0.7751,0.7706,0.7655,0.7618,0.7577,0.7535,0.7513,0.7474,0.7439,0.7386,0.7352,0.7285,0.7233,0.718,0.7151,0.7139,0.7135,0.7126,0.7133,0.7147,0.7139,0.7207,0.7137,0.7137,0.7137,0.7137,0.7137,0.7732,0.77,0.7653,0.7604,0.757,0.7531,0.7496,0.7465,0.742,0.7364,0.7348,0.7293,0.7247,0.7174,0.7144,0.7101,0.7103,0.709,0.7087,0.7084,0.7084,0.7154,0.7091,0.7091,0.7091,0.7091,0.7091,0,0.7679,0.7648,0.7604,0.7546,0.7508,0.7501,0.7454,0.7423,0.7375,0.7333,0.7291,0.7231,0.7181,0.714,0.7088,0.7061,0.7055,0.7049,0.705,0.7044,0.7085,0.7098,0.7055,0.7055,0.7055,0.7055,0.7055,0.7055,0.7647,0.759,0.757,0.7497,0.7467,0.7413,0.7388,0.7353,0.7319,0.7253,0.7212,0.7186,0.7144,0.709,0.7043,0.7033,0.7014,0.701,0.6998,0.7037,0.7041,0.7045,0.7057,0.7006,0.7006,0.696,0.696,0.696]}]]